This demonstration page uses our WeatherBlox Daily Observations layout. Learn more.

Left ArrowRight Arrow

Hourly Observations for April 17, 2021

Temp ( °F °C ) Dew Point ( °F °C ) Humidity (%) Winds ( mph kmh ) Pressure ( in mb ) Visibility ( mi km ) Precip ( " mm )
12:06 am 00:06 Cloudy with Light Rain 40 4.4 38 3.3 93 93 NNW 13 20 30.17 1022 10 16 0.00 0.00
12:53 am 00:53 Cloudy with Light Rain 40 4.4 38 3.3 93 93 NNW 14 22 30.16 1021 10 16 0.00 0.00
1:01 am 01:01 Cloudy with Light Rain 40 4.4 38 3.3 93 93 NNW 14 22 30.18 1022 9 14 0.00 0.00
1:53 am 01:53 Cloudy 40 4.4 38 3.3 93 93 NNW 14 22 30.16 1021 10 16 0.00 0.00
2:04 am 02:04 Cloudy 40 4.4 38 3.3 93 93 NNW 12 19 30.18 1022 10 16 0.00 0.00
2:13 am 02:13 Cloudy 40 4.4 38 3.3 93 93 NNW 12 19 30.17 1022 10 16 0.00 0.00
2:53 am 02:53 Cloudy 40 4.4 38 3.3 93 93 NNW 13 20 30.15 1021 10 16 0.00 0.00
3:12 am 03:12 Cloudy 40 4.4 38 3.3 93 93 NNW 13 20 30.16 1021 10 16 0.00 0.00
3:53 am 03:53 Cloudy 40 4.4 38 3.3 93 93 N 16 26 30.14 1021 10 16 0.00 0.00
4:53 am 04:53 Cloudy 40 4.4 38 3.3 93 93 NNW 14 22 30.15 1021 10 16 0.00 0.00
5:53 am 05:53 Cloudy 40 4.4 37 2.8 89 89 N 16 26 30.15 1021 10 16 0.00 0.00
6:53 am 06:53 Cloudy 39 3.9 37 2.8 93 93 N 15 24 30.17 1022 10 16 0.00 0.00
7:53 am 07:53 Cloudy 40 4.4 37 2.8 89 89 N 13 20 30.18 1022 9 14 0.00 0.00
8:53 am 08:53 Cloudy with Light Rain 40 4.4 37 2.8 89 89 N 14 22 30.21 1023 9 14 0.00 0.00
9:08 am 09:08 Cloudy 40 4.4 37 2.8 89 89 N 12 19 30.23 1024 10 16 0.00 0.00
9:53 am 09:53 Cloudy 42 5.6 38 3.3 85 85 N 16 26 30.21 1023 10 16 0.00 0.00
10:09 am 10:09 Cloudy 42 5.6 38 3.3 85 85 N 16 26 30.22 1023 10 16 0.00 0.00
10:53 am 10:53 Cloudy 44 6.7 38 3.3 79 79 N 18 30 30.21 1023 10 16 0.01 0.25
11:53 am 11:53 Cloudy 46 7.8 38 3.3 73 73 N 17 28 30.20 1023 10 16 0.00 0.00
12:02 pm 12:02 Cloudy 47 8.3 39 3.9 74 74 N 16 26 30.19 1022 10 16 0.00 0.00
12:12 pm 12:12 Cloudy 46 7.8 38 3.3 73 73 N 18 30 30.19 1023 10 16 0.00 0.00
12:53 pm 12:53 Cloudy 45 7.2 38 3.3 77 77 N 18 30 30.20 1023 10 16 0.00 0.00
1:20 pm 13:20 Cloudy 47 8.3 38 3.3 71 71 N 13 20 30.19 1022 10 16 0.00 0.00
1:53 pm 13:53 Cloudy 46 7.8 38 3.3 73 73 NNW 15 24 30.19 1022 10 16 0.00 0.00
2:01 pm 14:01 Cloudy 46 7.8 38 3.3 73 73 N 14 22 30.18 1022 10 16 0.00 0.00
2:09 pm 14:09 Cloudy 47 8.3 38 3.3 71 71 N 15 24 30.18 1022 10 16 0.00 0.00
2:24 pm 14:24 Cloudy 46 8 37 3 71 71 N 14 22 30.18 1022 10 16 0.00 0.00
2:31 pm 14:31 Cloudy 48 8.9 37 2.8 66 66 N 10 17 30.18 1022 10 16 0.00 0.00
2:46 pm 14:46 Cloudy 47 8.3 37 2.8 69 69 NNW 12 19 30.18 1022 10 16 0.00 0.00
2:53 pm 14:53 Cloudy 47 8.3 37 2.8 69 69 NNW 10 17 30.19 1022 10 16 0.00 0.00
3:53 pm 15:53 Cloudy 48 8.9 35 1.7 61 61 NNW 12 19 30.18 1022 10 16 0.00 0.00
4:53 pm 16:53 Partly Cloudy 49 9.4 36 2.2 61 61 N 14 22 30.16 1021 10 16 0.00 0.00
5:53 pm 17:53 Cloudy 48 8.9 38 3.3 68 68 N 8 13 30.16 1021 10 16 0.00 0.00
6:53 pm 18:53 Mostly Cloudy 48 8.9 36 2.2 63 63 N 8 13 30.15 1021 10 16 0.00 0.00
7:53 pm 19:53 Cloudy 47 8.3 36 2.2 66 66 N 12 19 30.15 1021 10 16 0.00 0.00
8:53 pm 20:53 Cloudy 45 7.2 38 3.3 77 77 NNW 6 9 30.16 1021 10 16 0.00 0.00
9:53 pm 21:53 Cloudy 43 6.1 38 3.3 82 82 WNW 5 7 30.17 1022 10 16 0.00 0.00
10:53 pm 22:53 Cloudy 42 5.6 38 3.3 85 85 WNW 6 9 30.16 1022 10 16 0.00 0.00
11:53 pm 23:53 Cloudy 42 5.6 37 2.8 82 82 WNW 6 9 30.16 1021 10 16 0.00 0.00

Powered by AerisWeather